Location: Cork
(51.8990°N, 8.4960°W)
Time: 17:46:39
(UTC+01:00)

Iridium 66 - Visible Passes

Search period start: 25 October 2014 00:00
Search period end: 03 November 2014 23:00
Orbit: 776 x 779 km, 86.4° (Epoch: 25 October)

Date Brightness Start Highest point End Pass type
(mag) Time Alt. Az. Time Alt. Az. Time Alt. Az.
25 Oct 8.7 03:32:39 10° NNE 03:33:46 15° NNE 03:33:46 15° NNE visible
25 Oct 8.0 05:12:55 10° NNW 05:14:12 18° NNW 05:14:12 18° NNW visible
26 Oct 8.3 03:39:17 10° N 03:40:13 16° N 03:40:13 16° N visible
27 Oct 8.6 03:05:48 10° N 03:06:18 13° N 03:06:18 13° N visible
27 Oct 8.7 17:51:51 10° WSW 17:55:05 16° WNW 17:58:20 10° NNW visible
30 Oct 8.9 17:53:23 10° W 17:55:28 12° WNW 17:57:33 10° NW visible
